Grand Marais, MN

3:30 AM CDT on October 23, 2019 (GMT -0500)
Grand Marais

Weather History for KGNA - September, 2019

Change the Weather History Date:

Wednesday, September 18, 2019

  Actual Average (WUND) Record (WUND)
Temperature  
Mean Temperature 59 °F -  
Max Temperature 66 °F - - (-1)
Min Temperature 54 °F - - (-1)
Degree Days  
Heating Degree Days 6    
Growing Degree Days 9 (Base 50)    
Moisture  
Dew Point 57 °F    
Average Humidity 95    
Maximum Humidity 100    
Minimum Humidity 90    
Precipitation  
Precipitation 0.00 in - - ()
Sea Level Pressure  
Sea Level Pressure 29.85 in    
Wind  
Wind Speed 3 mph (ENE)    
Max Wind Speed 6 mph    
Max Gust Speed -    
Averages and records for this station are not official NWS values.
T = Trace of Precipitation, MM = Missing Value Source: NWS Daily Summary

Daily Weather History Graph

Daily Weather History Graph

Search for Another Location

Airport or City:

Astronomy

Sep. 18, 2019 Rise Set
Actual Time 6:42 AM CDT 7:07 PM CDT
Civil Twilight 6:11 AM CDT 7:38 PM CDT
Nautical Twilight 5:34 AM CDT 8:15 PM CDT
Astronomical Twilight 4:56 AM CDT 8:53 PM CDT
Moon 9:24 PM CDT (9/18) 11:01 AM CDT (9/18)
Length of Visible Light 13h 27m
Length of Day
12h 25m
Waning Gibbous, 82% of the Moon is Illuminated
Sep 18
Waning Gibbous
Sep 21
Last Quarter
Sep 28
New
Oct 5
First Quarter
Oct 13
Full

Hourly Weather History & Observations

Time (CDT) Temp. Dew Point Humidity Pressure Visibility Wind Dir Wind Speed Gust Speed Precip Events Conditions
12:56 AM 60.1 °F 57.9 °F 93% 29.91 in - NE 4.6 mph - N/A   Unknown
1:56 AM 57.0 °F 55.9 °F 96% 29.91 in - NE 4.6 mph - N/A   Unknown
2:56 AM 57.0 °F 55.9 °F 96% 29.89 in - Calm Calm - N/A   Unknown
3:56 AM 57.0 °F 55.9 °F 96% 29.88 in - Calm Calm - N/A   Unknown
4:56 AM 57.9 °F 57.0 °F 97% 29.88 in - Calm Calm - N/A   Unknown
5:56 AM 57.9 °F 57.0 °F 97% 29.88 in - Calm Calm - N/A   Unknown
6:56 AM 55.9 °F 55.0 °F 97% 29.91 in - ENE 3.5 mph - N/A   Unknown
7:56 AM 55.9 °F 55.0 °F 97% 29.91 in - ENE 4.6 mph - N/A   Unknown
8:56 AM 59.0 °F 57.0 °F 93% 29.90 in - ENE 5.8 mph - N/A   Unknown
9:56 AM 57.0 °F 55.9 °F 96% 29.86 in - ENE 5.8 mph - N/A   Unknown
11:56 AM 59.0 °F 57.0 °F 93% 29.84 in - ENE 4.6 mph - N/A   Unknown
12:56 PM 63.0 °F 61.0 °F 93% 29.83 in - Calm Calm - N/A   Unknown
1:56 PM 62.1 °F 59.0 °F 90% 29.81 in - ENE 4.6 mph - N/A   Unknown
2:56 PM 62.1 °F 60.1 °F 93% 29.80 in - ENE 5.8 mph - N/A   Unknown
3:56 PM 62.1 °F 60.1 °F 93% 29.80 in - NE 5.8 mph - N/A   Unknown
4:56 PM 61.0 °F 59.0 °F 93% 29.80 in - NE 3.5 mph - N/A   Unknown
5:56 PM 61.0 °F 60.1 °F 97% 29.80 in - ENE 4.6 mph - N/A   Unknown
6:56 PM 59.0 °F 57.9 °F 96% 29.81 in - NE 5.8 mph - N/A   Unknown
7:56 PM 57.9 °F 57.0 °F 97% 29.82 in - NE 3.5 mph - N/A   Unknown
8:56 PM 59.0 °F 57.9 °F 96% 29.83 in - ENE 3.5 mph - N/A   Unknown
9:56 PM 57.0 °F 57.0 °F 100% 29.83 in - Calm Calm - N/A   Unknown
10:56 PM 57.0 °F 55.9 °F 96% 29.83 in - Calm Calm - N/A   Unknown
11:56 PM 54.0 °F 54.0 °F 100% 29.84 in - WSW 4.6 mph - N/A   Unknown